(361490) = 2007 DT116

Discovered at Catalina on 2007-02-17 by CSS.

Orbit

Orbit type: Main Belt

Note: WebGL enabled browser required.

epoch2024-03-31.0
epoch JD2460400.5
perihelion date2023-01-20.64260
perihelion JD2459965.14260
argument of perihelion (°)271.06587
ascending node (°)223.66319
inclination (°)3.52659
eccentricity0.1527661
perihelion distance (AU)2.5947705
Tisserand w.r.t. Jupiter3.2
ΔV w.r.t. Earth (km/sec)10.2
semimajor axis (AU)3.0626378
mean anomaly (°)80.05829
mean daily motion (°/day)0.18389100
aphelion distance (AU)3.531
period (years)5.36
P-vector [x]-0.70244786
P-vector [y]0.67502554
P-vector [z]0.22562695
Q-vector [x]-0.71046703
Q-vector [y]-0.64611439
Q-vector [z]-0.27887773
absolute magnitude16.32
phase slope0.15
uncertainty0
referenceMPEC 2024-F62
observations used284
oppositions11
arc length (days)6683
first opposition used2005
last opposition used2024
residual rms (arc-secs)0.72
perturbers coarse indicatorM-v
perturbers precise indicator003Ek
first observation date used2005-12-01.0
last observation date used2024-03-19.0
computer nameMPCLINUX
JD of orbit computation2456465.500684
perihelion JD uncertainty (days)1.9194E-04
argument of perihelion uncertainty (°)8.1664E-05
ascending node uncertainty (°)6.9079E-05
inclination uncertainty (°)5.0868E-06
eccentricity uncertainty 5.8330E-08
perihelion distance uncertainty (AU)1.7349E-07
Minimum Orbit Intersection Distances (in AU)
for orbit epoch: 2460400.5, reference: E2024-F62
Mercury2.25799
Venus1.8825
Earth1.61232
Mars0.95653
Jupiter1.54024
Saturn6.15262
Uranus15.7492
Neptune26.5121

Observations

289 total observations over interval: 2005 12 01.23681 – 2024 03 19.639890
These data are available for download (format description).

Date (UT) J2000 RA J2000 Dec Magn Location Ref
2005 12 01.23681 02 36 37.51 +14 49 51.4 20.5 V G96 – Mt. Lemmon Survey MPS 309462
2005 12 01.24263 02 36 37.26 +14 49 50.4 20.0 V G96 – Mt. Lemmon Survey MPS 309462
2005 12 01.24844 02 36 37.04 +14 49 48.8 20.1 V G96 – Mt. Lemmon Survey MPS 309462
2005 12 01.25432 02 36 36.82 +14 49 47.4 19.9 V G96 – Mt. Lemmon Survey MPS 309462
2006 01 21.08990 02 35 39.51 +14 06 15.0 20.9 V G96 – Mt. Lemmon Survey MPS 309462
2006 01 21.09520 02 35 39.69 +14 06 15.6 21.0 V G96 – Mt. Lemmon Survey MPS 309462
2006 01 21.10050 02 35 39.91 +14 06 16.2 21.6 V G96 – Mt. Lemmon Survey MPS 309462
2006 01 21.10582 02 35 40.05 +14 06 16.7 21.6 V G96 – Mt. Lemmon Survey MPS 309462
2007 02 17.33337 10 36 07.95 +03 10 25.3 20.5 V 703 – Catalina Sky Survey MPS 309462
2007 02 17.34118 10 36 07.56 +03 10 27.1 20.2 V 703 – Catalina Sky Survey MPS 309462
2007 02 17.34681 10 36 07.34 +03 10 29.2 20.0 V G96 – Mt. Lemmon Survey MPS 309462
2007 02 17.34892 10 36 07.27 +03 10 30.2 19.7 V 703 – Catalina Sky Survey MPS 309462
2007 02 17.35125 10 36 07.16 +03 10 30.1 19.8 V G96 – Mt. Lemmon Survey MPS 309462
2007 02 17.35578 10 36 06.91 +03 10 31.4 20.1 V G96 – Mt. Lemmon Survey MPS 309462
2007 02 17.35667 10 36 06.91 +03 10 31.9 20.5 V 703 – Catalina Sky Survey MPS 309462
2007 02 17.36028 10 36 06.69 +03 10 32.5 19.9 V G96 – Mt. Lemmon Survey MPS 309462
2007 02 26.24098 10 29 17.62 +03 53 52.3 19.4 V 703 – Catalina Sky Survey MPS 309462
2007 02 26.25174 10 29 17.12 +03 53 53.3 19.5 V 703 – Catalina Sky Survey MPS 309462
2007 02 26.26245 10 29 16.76 +03 53 59.1 19.5 V 703 – Catalina Sky Survey MPS 309462
2007 02 26.27315 10 29 16.18 +03 54 02.7 20.9 V 703 – Catalina Sky Survey MPS 309462
2007 03 09.24227 10 21 04.29 +04 52 00.0 20.3 R 644 – Palomar Mountain/NEAT MPS 309462
2007 03 09.26273 10 21 03.40 +04 52 06.8 20.1 R 644 – Palomar Mountain/NEAT MPS 309462
2007 03 09.28318 10 21 02.50 +04 52 13.3 19.9 R 644 – Palomar Mountain/NEAT MPS 309462
2007 03 15.22198 10 17 07.33 +05 22 56.6 20.9 V 703 – Catalina Sky Survey MPS 309462
2007 03 15.23132 10 17 06.75 +05 22 59.5 20.0 V 703 – Catalina Sky Survey MPS 309462
2007 03 15.24066 10 17 06.61 +05 23 02.0 19.9 V 703 – Catalina Sky Survey MPS 309462
2007 03 15.24999 10 17 06.10 +05 23 05.4 19.7 V 703 – Catalina Sky Survey MPS 309462
2012 01 19.29219 07 13 07.708 +17 10 29.41 20.6 g F51 – Pan-STARRS 1, Haleakala MPS 408824
2012 01 19.30486 07 13 07.058 +17 10 30.83 20.3 g F51 – Pan-STARRS 1, Haleakala MPS 408824
2012 01 19.31851 07 13 06.335 +17 10 32.07 19.8 r F51 – Pan-STARRS 1, Haleakala MPS 408824
2012 01 19.33082 07 13 05.688 +17 10 33.11 19.8 r F51 – Pan-STARRS 1, Haleakala MPS 408824
2012 01 24.30504 07 09 00.254 +17 17 48.21 20.4 g F51 – Pan-STARRS 1, Haleakala MPS 408824
2012 01 24.31803 07 08 59.621 +17 17 49.41 20.7 g F51 – Pan-STARRS 1, Haleakala MPS 408824
2012 01 24.33081 07 08 58.986 +17 17 50.60 20.1 r F51 – Pan-STARRS 1, Haleakala MPS 408824
2012 01 24.34300 07 08 58.381 +17 17 51.70 20.2 r F51 – Pan-STARRS 1, Haleakala MPS 408824
2012 02 10.25442 06 58 31.742 +17 43 42.45 20.3 i F51 – Pan-STARRS 1, Haleakala MPS 411580
2012 02 10.26763 06 58 31.401 +17 43 43.47 20.5 i F51 – Pan-STARRS 1, Haleakala MPS 411580
2013 04 08.39113 14 42 52.95 -16 37 49.3 20.6 V G96 – Mt. Lemmon Survey MPS 462726
2013 04 08.39641 14 42 52.70 -16 37 48.0 20.4 V G96 – Mt. Lemmon Survey MPS 462726
2013 04 08.40170 14 42 52.52 -16 37 46.7 20.8 V G96 – Mt. Lemmon Survey MPS 462726
2013 04 08.40699 14 42 52.34 -16 37 45.8 21.4 V G96 – Mt. Lemmon Survey MPS 462726
2013 04 12.49834 14 40 11.235 -16 21 24.81 20.4 w F51 – Pan-STARRS 1, Haleakala MPS 464069
2013 04 12.51219 14 40 10.641 -16 21 21.31 20.4 w F51 – Pan-STARRS 1, Haleakala MPS 464069
2013 04 12.52608 14 40 10.043 -16 21 17.71 20.3 w F51 – Pan-STARRS 1, Haleakala MPS 464069
2013 04 12.53992 14 40 09.454 -16 21 14.35 20.4 w F51 – Pan-STARRS 1, Haleakala MPS 464069
2013 04 29.35492 14 27 27.28 -15 02 50.1 19.6 V G96 – Mt. Lemmon Survey MPS 466825
2013 04 29.36090 14 27 27.00 -15 02 48.4 19.8 V G96 – Mt. Lemmon Survey MPS 466825
2013 04 29.36694 14 27 26.71 -15 02 46.4 20.2 V G96 – Mt. Lemmon Survey MPS 466825
2013 04 29.37303 14 27 26.46 -15 02 44.7 19.4 V G96 – Mt. Lemmon Survey MPS 466825
2013 05 05.38649 14 22 46.404 -14 32 55.02 20.2 w F51 – Pan-STARRS 1, Haleakala MPS 467456
2013 05 05.41610 14 22 44.995 -14 32 46.35 20.2 w F51 – Pan-STARRS 1, Haleakala MPS 467456
2013 05 05.43089 14 22 44.292 -14 32 41.94 20.2 w F51 – Pan-STARRS 1, Haleakala MPS 467456
2013 05 09.40103 14 19 46.252 -14 13 20.55 20.6 w F51 – Pan-STARRS 1, Haleakala MPS 467456
2013 05 09.41501 14 19 45.613 -14 13 16.55 20.7 w F51 – Pan-STARRS 1, Haleakala MPS 467456
2013 05 09.42898 14 19 44.976 -14 13 12.45 20.5 w F51 – Pan-STARRS 1, Haleakala MPS 467456
2013 05 09.44295 14 19 44.337 -14 13 08.46 20.3 w F51 – Pan-STARRS 1, Haleakala MPS 467456
2013 05 13.26433 14 17 01.60 -13 55 06.9 20.4 V G96 – Mt. Lemmon Survey MPS 468649
2013 05 13.26954 14 17 01.42 -13 55 05.5 20.6 V G96 – Mt. Lemmon Survey MPS 468649
2013 05 13.27473 14 17 01.17 -13 55 03.6 20.5 V G96 – Mt. Lemmon Survey MPS 468649
2013 05 13.27994 14 17 00.99 -13 55 02.4 20.8 V G96 – Mt. Lemmon Survey MPS 468649
2013 05 30.21816 14 07 36.51 -12 48 04.3 21.3 V G96 – Mt. Lemmon Survey MPS 469103
2013 05 30.22350 14 07 36.33 -12 48 03.9 21.0 V G96 – Mt. Lemmon Survey MPS 469103
2013 05 30.22882 14 07 36.26 -12 48 02.8 21.8 V G96 – Mt. Lemmon Survey MPS 469103
2013 05 30.23409 14 07 36.08 -12 48 02.2 20.8 V G96 – Mt. Lemmon Survey MPS 469103
2013 06 04.21715 14 05 50.67 -12 33 48.8 20.7 V G96 – Mt. Lemmon Survey MPS 469860
2013 06 04.22244 14 05 50.53 -12 33 47.4 21.0 V G96 – Mt. Lemmon Survey MPS 469860
2013 06 04.22775 14 05 50.46 -12 33 46.7 20.6 V G96 – Mt. Lemmon Survey MPS 469860
2013 06 04.23306 14 05 50.35 -12 33 46.0 20.6 V G96 – Mt. Lemmon Survey MPS 469860
2015 07 25.50531 23 44 55.329 +02 32 19.73 22.4 w F51 – Pan-STARRS 1, Haleakala MPS 618461
2015 07 25.51773 23 44 55.226 +02 32 19.75 22.3 w F51 – Pan-STARRS 1, Haleakala MPS 618461
2015 07 25.53025 23 44 55.146 +02 32 19.95 21.8 w F51 – Pan-STARRS 1, Haleakala MPS 618461
2015 07 28.57509 23 44 31.506 +02 31 56.46 21.8 w F51 – Pan-STARRS 1, Haleakala MPS 618461
2015 07 28.58771 23 44 31.400 +02 31 56.49 22.2 w F51 – Pan-STARRS 1, Haleakala MPS 618461
2015 07 28.60052 23 44 31.245 +02 31 56.20 21.8 w F51 – Pan-STARRS 1, Haleakala MPS 618461
2015 08 21.50699 23 35 48.741 +01 47 43.01 21.2 w F51 – Pan-STARRS 1, Haleakala MPS 624058
2015 08 21.51964 23 35 48.301 +01 47 40.30 21.4 w F51 – Pan-STARRS 1, Haleakala MPS 624058
2015 08 21.53224 23 35 47.877 +01 47 37.66 21.4 w F51 – Pan-STARRS 1, Haleakala MPS 624058
2015 08 21.54489 23 35 47.430 +01 47 35.37 21.5 w F51 – Pan-STARRS 1, Haleakala MPS 624058
2015 09 06.34234 23 25 41.29 +00 42 42.1 20.9 V 691 – Steward Observatory, Kitt Peak-Spacewatch MPS 626624
2015 09 06.36112 23 25 40.47 +00 42 36.6 20.7 V 691 – Steward Observatory, Kitt Peak-Spacewatch MPS 626624
2015 09 06.37990 23 25 39.65 +00 42 31.2 21.1 V 691 – Steward Observatory, Kitt Peak-Spacewatch MPS 626624
2015 10 16.11502 23 00 42.57 -02 30 10.7   691 – Steward Observatory, Kitt Peak-Spacewatch MPS 635426
2015 10 16.16013 23 00 41.45 -02 30 20.9   691 – Steward Observatory, Kitt Peak-Spacewatch MPS 635426
2015 10 16.19068 23 00 40.76 -02 30 28.0   691 – Steward Observatory, Kitt Peak-Spacewatch MPS 635426
2015 10 16.26884 23 00 38.912 -02 30 45.45 21.2 w F51 – Pan-STARRS 1, Haleakala MPS 635426
2015 10 16.29304 23 00 38.302 -02 30 50.97 21.4 w F51 – Pan-STARRS 1, Haleakala MPS 635426
2015 10 16.30517 23 00 38.002 -02 30 53.99 21.7 w F51 – Pan-STARRS 1, Haleakala MPS 635426
2015 12 09.20534 23 06 52.229 -03 06 13.02 22.3 w F51 – Pan-STARRS 1, Haleakala MPS 659550
2015 12 09.21758 23 06 52.656 -03 06 10.99 22.3 w F51 – Pan-STARRS 1, Haleakala MPS 659550
2015 12 09.22983 23 06 53.072 -03 06 09.33 22.4 w F51 – Pan-STARRS 1, Haleakala MPS 659550
2015 12 09.24212 23 06 53.502 -03 06 07.86 22.2 w F51 – Pan-STARRS 1, Haleakala MPS 659550
2016 10 26.59509 04 53 22.973 +21 04 06.16 20.9 w F51 – Pan-STARRS 1, Haleakala MPS 739551
2016 10 26.60609 04 53 22.742 +21 04 04.71 21.0 w F51 – Pan-STARRS 1, Haleakala MPS 739551
